FW2462 Weather Reports


Display with metric or nautical units.
time (UTC)temp
F
wind
direction
speed
MPH
gust
MPH
rain 1hr
in
rain 24hr
in
rain mn
in
humidity
%
barometer
mb
20260906104615 72 329 0.0 0.0 0.00 0.10 0.00 99 1017.6
20260906104116 72 330 0.0 0.0 0.00 0.10 0.00 99 1017.4
20260906103616 72 330 0.0 0.0 0.00 0.10 0.00 99 1017.5
20260906103117 72 330 0.0 0.0 0.00 0.10 0.00 99 1017.4
20260906102617 72 330 0.0 0.0 0.00 0.10 0.00 99 1017.5
20260906102112 71 330 0.0 0.0 0.00 0.10 0.00 99 1017.5
20260906101611 71 327 0.0 0.0 0.00 0.10 0.00 100 1017.4
20260906101340 71 327 0.0 1.0 0.00 0.10 0.00 100 1017.2
20260906095837 71 329 0.0 1.0 0.00 0.10 0.00 100 1016.8
20260906094832 71 323 0.0 0.0 0.00 0.10 0.00 100 1016.9
20260906093609 71 323 0.0 2.0 0.00 0.10 0.00 100 1016.9
20260906093110 71 328 0.0 2.0 0.00 0.10 0.00 100 1016.8
20260906092610 71 60 0.0 1.0 0.00 0.10 0.00 100 1016.7
20260906092107 71 60 0.0 1.0 0.00 0.10 0.00 100 1016.7
20260906091605 71 60 0.0 0.0 0.00 0.10 0.00 100 1016.7
20260906091104 70 60 0.0 1.0 0.00 0.10 0.00 100 1016.7
20260906090606 70 60 0.0 1.0 0.00 0.10 0.00 100 1016.5
20260906090104 70 70 0.0 0.0 0.00 0.10 0.00 100 1016.5
20260906085601 70 98 0.0 0.0 0.00 0.10 0.00 100 1016.5
20260906085100 70 98 0.0 0.0 0.00 0.10 0.00 100 1016.4
20260906084601 70 98 0.0 0.0 0.00 0.10 0.00 100 1016.4
20260906084326 70 98 0.0 0.0 0.00 0.10 0.00 100 1016.4
20260906083559 69 98 0.0 0.0 0.00 0.10 0.00 100 1016.2
20260906083314 69 98 0.0 0.0 0.00 0.10 0.00 100 1016.2
20260906081548 70 98 0.0 0.0 0.00 0.10 0.00 100 1016.2
20260906081050 70 98 0.0 0.0 0.00 0.10 0.00 99 1016.1
20260906080813 70 98 0.0 0.0 0.00 0.10 0.00 99 1016.1
20260906080323 70 98 0.0 0.0 0.00 0.10 0.00 99 1016.1
20260906075546 69 98 0.0 0.0 0.00 0.10 0.00 99 1016.1
20260906075310 70 98 0.0 0.0 0.00 0.10 0.00 99 1016.0
20260906074535 70 98 0.0 0.0 0.00 0.10 0.00 99 1016.1
20260906074259 70 98 0.0 0.0 0.00 0.10 0.00 99 1016.1
20260906073523 70 98 0.0 0.0 0.00 0.10 0.00 99 1016.0
20260906073017 70 98 0.0 0.0 0.00 0.11 0.00 99 1016.1
20260906072511 70 98 0.0 0.0 0.00 0.11 0.00 99 1016.2
20260906072004 70 98 0.0 0.0 0.00 0.11 0.00 99 1016.1
20260906071459 70 98 0.0 0.0 0.00 0.11 0.00 99 1016.2
20260906070954 70 98 0.0 0.0 0.00 0.11 0.00 99 1016.2
20260906070447 70 98 0.0 0.0 0.00 0.11 0.00 98 1016.3
20260906065941 70 98 0.0 0.0 0.00 0.11 0.00 98 1016.2
20260906065435 70 98 0.0 0.0 0.00 0.11 0.00 98 1016.4
20260906065158 70 98 0.0 1.0 0.00 0.11 0.00 98 1016.4
20260906064423 70 98 0.0 1.0 0.00 0.11 0.00 98 1016.3
20260906063917 70 98 0.0 0.0 0.00 0.11 0.00 98 1016.4
20260906063635 70 98 0.0 0.0 0.00 0.11 0.00 98 1016.6
20260906063340 70 99 0.0 0.0 0.00 0.11 0.00 98 1016.6
20260906062359 70 99 0.0 0.0 0.00 0.11 0.00 98 1016.5
20260906061853 70 99 0.0 0.0 0.00 0.11 0.00 98 1016.3
20260906061822 70 99 0.0 0.0 0.00 0.11 0.00 98 1016.4
20260906060841 70 99 0.0 0.0 0.00 0.11 0.00 97 1016.4
20260906060335 70 99 0.0 0.0 0.00 0.11 0.00 97 1016.4
20260906055829 71 99 0.0 0.0 0.00 0.12 0.00 97 1016.3
20260906055323 71 99 0.0 0.0 0.00 0.12 0.00 97 1016.3
20260906054817 71 99 0.0 0.0 0.00 0.12 0.00 97 1016.4
20260906054311 71 99 0.0 0.0 0.00 0.12 0.00 96 1016.4
20260906053805 71 99 0.0 0.0 0.00 0.12 0.00 96 1016.5
20260906053258 71 99 0.0 0.0 0.00 0.12 0.00 96 1016.5
20260906052753 71 99 0.0 0.0 0.00 0.12 0.00 96 1016.5
20260906052247 71 99 0.0 0.0 0.00 0.12 0.00 95 1016.6
20260906051740 71 99 0.0 0.0 0.00 0.12 0.00 95 1016.6
20260906051235 71 99 0.0 0.0 0.00 0.12 0.00 95 1016.7
20260906050729 72 99 0.0 0.0 0.00 0.12 0.00 95 1016.7
20260906050223 72 99 0.0 0.0 0.00 0.12 0.00 94 1016.5
20260906045720 72 98 0.0 0.0 0.00 0.12 0.00 94 1016.7
20260906045212 72 98 0.0 0.0 0.00 0.12 0.00 94 1016.7
20260906044705 72 99 0.0 0.0 0.00 0.12 0.00 94 1016.8
20260906044416 72 98 0.0 0.0 0.00 0.12 0.00 94 1016.9
20260906043653 72 98 0.0 0.0 0.00 0.12 0.00 94 1016.9
20260906043413 72 99 0.0 0.0 0.00 0.12 0.00 94 1016.8
20260906042907 72 99 0.0 0.0 0.00 0.12 0.00 94 1016.8
20260906042135 73 98 0.0 0.0 0.00 0.12 0.00 94 1017.0
20260906041629 73 98 0.0 0.0 0.00 0.12 0.00 94 1017.2
20260906041123 73 99 0.0 0.0 0.00 0.12 0.00 94 1017.2
20260906040850 73 99 0.0 0.0 0.00 0.12 0.00 94 1016.9
20260906040111 73 99 0.0 0.0 0.00 0.12 0.00 93 1016.8
20260906035604 73 99 0.0 0.0 0.00 0.12 0.12 93 1016.8
20260906035058 73 99 0.0 0.0 0.00 0.12 0.12 93 1016.7
20260906034552 74 99 0.0 1.0 0.00 0.12 0.12 92 1016.8
20260906034046 74 99 0.0 2.0 0.00 0.12 0.12 93 1016.8
20260906033540 73 99 0.0 2.0 0.00 0.12 0.12 93 1016.8
20260906033034 73 238 0.0 1.0 0.00 0.12 0.12 93 1016.8
20260906032528 73 217 0.0 0.0 0.00 0.12 0.12 93 1016.8
20260906032022 73 217 0.0 0.0 0.00 0.12 0.12 93 1016.7
20260906031516 73 217 0.0 0.0 0.00 0.12 0.12 93 1016.7
20260906031013 73 217 0.0 0.0 0.00 0.12 0.12 92 1016.7
20260906030504 73 217 0.0 0.0 0.00 0.12 0.12 93 1016.8
20260906025957 73 217 0.0 0.0 0.00 0.12 0.12 92 1016.8
20260906025452 73 217 0.0 0.0 0.00 0.12 0.12 92 1016.8
20260906024946 74 217 0.0 0.0 0.00 0.12 0.12 92 1016.7
20260906024440 74 217 0.0 0.0 0.00 0.12 0.12 91 1016.8
20260906023936 74 217 0.0 0.0 0.00 0.12 0.12 91 1016.7
20260906023427 74 217 0.0 0.0 0.00 0.12 0.12 91 1016.5
20260906022922 74 217 0.0 0.0 0.00 0.12 0.12 90 1016.6
20260906022416 74 217 0.0 0.0 0.00 0.12 0.12 90 1016.6
20260906021910 75 217 0.0 0.0 0.00 0.12 0.12 90 1016.6
20260906021410 75 217 0.0 0.0 0.00 0.12 0.12 91 1016.5
20260906020910 75 217 0.0 0.0 0.00 0.12 0.12 90 1016.5
20260906020410 75 217 0.0 0.0 0.00 0.12 0.12 89 1016.4
20260906015908 75 217 0.0 0.0 0.00 0.12 0.12 89 1016.4
20260906015629 74 217 0.0 0.0 0.00 0.12 0.12 89 1016.4
20260906014902 75 217 0.0 0.0 0.00 0.12 0.12 88 1016.3
20260906014400 75 217 0.0 0.0 0.00 0.12 0.12 88 1016.4
20260906012354 76 217 0.0 0.0 0.00 0.12 0.12 86 1016.3
20260906011852 76 217 0.0 0.0 0.00 0.12 0.12 85 1016.2
20260906011349 76 217 0.0 1.0 0.00 0.12 0.12 85 1016.1
20260906011106 76 217 0.0 1.0 0.00 0.12 0.12 85 1016.0
20260906010345 76 199 0.0 0.0 0.00 0.12 0.12 85 1015.9
20260906005842 76 199 0.0 0.0 0.00 0.12 0.12 85 1015.9
20260906005344 76 199 0.0 0.0 0.00 0.12 0.12 84 1015.9
20260906004840 77 198 0.0 1.0 0.00 0.12 0.12 83 1015.9
20260906004341 77 198 0.0 1.0 0.00 0.12 0.12 83 1015.8
20260906004116 77 224 0.0 1.0 0.00 0.12 0.12 82 1015.8
20260906003337 77 276 0.0 0.0 0.00 0.12 0.12 82 1015.8
20260906002837 78 276 0.0 0.0 0.00 0.12 0.12 81 1015.6
20260906002338 78 276 0.0 0.0 0.00 0.12 0.12 81 1015.5
20260906001836 78 276 0.0 1.0 0.00 0.12 0.12 82 1015.6
20260906001338 78 276 0.0 1.0 0.00 0.12 0.12 79 1015.5
20260906000836 79 245 0.0 1.0 0.00 0.12 0.12 80 1015.4
20260906000338 79 245 0.0 1.0 0.00 0.12 0.12 79 1015.5
20260905235836 79 245 0.0 1.0 0.00 0.12 0.12 79 1015.4
20260905235604 79 261 0.0 1.0 0.00 0.12 0.12 79 1015.4
20260905234834 79 261 0.0 1.0 0.00 0.12 0.12 78 1015.4
20260905234602 80 261 0.0 1.0 0.00 0.12 0.12 79 1015.4
20260905234103 80 260 0.0 2.0 0.00 0.12 0.12 78 1015.4
20260905233332 80 260 0.0 2.0 0.00 0.12 0.12 77 1015.3
20260905233054 81 260 0.0 1.0 0.00 0.12 0.12 76 1015.3
20260905232335 81 260 0.0 1.0 0.00 0.12 0.12 76 1015.2
20260905231835 82 260 0.0 1.0 0.00 0.12 0.12 75 1015.1
20260905231334 82 259 0.0 0.0 0.00 0.12 0.12 74 1015.0
20260905230836 83 259 0.0 1.0 0.00 0.12 0.12 74 1015.1
20260905230329 83 259 0.0 1.0 0.00 0.12 0.12 73 1015.2
20260905230046 83 259 0.0 1.0 0.00 0.12 0.12 73 1015.2
20260905225317 84 259 0.0 1.0 0.00 0.12 0.12 70 1015.2
20260905224811 85 258 0.0 1.0 0.00 0.12 0.12 69 1015.4
20260905224523 85 257 0.0 3.0 0.00 0.12 0.12 69 1015.3
20260905223758 86 167 1.0 3.0 0.00 0.12 0.12 67 1015.3
20260905223252 87 203 0.0 2.0 0.00 0.12 0.12 66 1015.3
20260905222747 88 224 0.0 3.0 0.00 0.12 0.12 64 1015.4
20260905222240 88 153 1.0 3.0 0.00 0.12 0.12 65 1015.4
20260905221734 88 297 1.0 3.0 0.00 0.12 0.12 65 1015.4
20260905221229 88 305 1.0 3.0 0.00 0.12 0.12 63 1015.4
20260905220723 87 352 1.0 3.0 0.00 0.12 0.12 64 1015.3
20260905220216 87 354 1.0 2.0 0.00 0.12 0.12 66 1015.4
20260905215710 86 192 0.0 3.0 0.00 0.12 0.12 69 1015.3
20260905215204 85 274 0.0 3.0 0.00 0.12 0.12 70 1015.4
20260905214659 84 295 1.0 3.0 0.00 0.12 0.12 69 1015.5
20260905214152 85 226 1.0 3.0 0.00 0.12 0.12 71 1015.5
20260905213646 85 153 1.0 3.0 0.00 0.12 0.12 68 1015.6
20260905213140 85 219 1.0 4.0 0.00 0.12 0.12 70 1015.7
20260905212634 85 180 1.0 4.0 0.00 0.12 0.12 69 1015.7
20260905212129 85 198 1.0 3.0 0.00 0.12 0.12 69 1015.7
20260905211622 85 198 1.0 6.0 0.00 0.12 0.12 69 1015.8
20260905211118 85 176 1.0 6.0 0.00 0.12 0.12 69 1015.7
20260905210610 85 212 1.0 5.0 0.00 0.12 0.12 68 1015.5
20260905210104 85 252 1.0 5.0 0.00 0.12 0.12 68 1015.4
20260905205558 85 157 1.0 5.0 0.00 0.12 0.12 67 1015.4
20260905205052 86 347 2.0 6.0 0.00 0.12 0.12 66 1015.3
20260905204547 86 264 2.0 7.0 0.00 0.12 0.12 66 1015.3
20260905204041 86 212 2.0 7.0 0.00 0.12 0.12 67 1015.3
20260905203535 86 267 3.0 10.0 0.00 0.12 0.12 67 1015.3
20260905203028 86 344 3.0 10.0 0.00 0.12 0.12 66 1015.5
20260905202749 86 171 2.0 5.0 0.00 0.12 0.12 71 1015.5
20260905202016 86 157 2.0 7.0 0.00 0.12 0.12 72 1015.6
20260905201511 85 172 2.0 7.0 0.00 0.12 0.12 73 1015.5
20260905201005 85 162 2.0 6.0 0.00 0.12 0.12 73 1015.7
20260905200458 84 224 3.0 6.0 0.00 0.12 0.12 76 1015.7
20260905195953 84 176 1.0 6.0 0.00 0.12 0.12 74 1015.8
20260905195447 84 210 0.0 4.0 0.00 0.12 0.12 77 1015.6
20260905194941 83 276 0.0 4.0 0.00 0.12 0.12 76 1015.6
20260905194435 82 315 1.0 3.0 0.00 0.12 0.12 79 1015.6
20260905193929 81 292 1.0 6.0 0.00 0.12 0.12 79 1015.4
20260905193423 80 225 2.0 6.0 0.00 0.12 0.12 81 1015.4
20260905192916 79 202 1.0 6.0 0.00 0.12 0.12 83 1015.7
20260905192410 78 233 1.0 7.0 0.00 0.12 0.12 85 1015.8
20260905191906 77 52 3.0 7.0 0.00 0.12 0.12 87 1015.9
20260905191404 77 208 2.0 6.0 0.00 0.12 0.12 91 1016.0
20260905190900 77 229 2.0 5.0 0.00 0.12 0.12 91 1015.3
20260905190618 76 236 1.0 4.0 0.00 0.12 0.12 92 1015.1
20260905190124 76 213 0.0 1.0 0.00 0.12 0.12 92 1014.7
20260905185400 76 236 0.0 1.0 0.00 0.12 0.12 92 1014.3
20260905184901 76 115 0.0 2.0 0.07 0.12 0.12 92 1014.6
20260905184616 76 114 0.0 2.0 0.10 0.12 0.12 92 1014.8
20260905183859 76 114 1.0 5.0 0.10 0.12 0.12 91 1015.1
20260905183357 76 71 1.0 5.0 0.10 0.12 0.12 89 1015.8
20260905183120 77 341 1.0 4.0 0.10 0.12 0.12 88 1016.0
20260905182353 77 355 1.0 6.0 0.10 0.12 0.12 88 1015.9
20260905181858 78 89 1.0 7.0 0.10 0.12 0.12 87 1016.0
20260905180353 80 69 1.0 4.0 0.10 0.12 0.12 83 1016.6
20260905175853 82 57 2.0 11.0 0.10 0.12 0.12 83 1016.7
20260905175352 84 55 3.0 11.0 0.10 0.12 0.12 78 1016.9
20260905174853 89 335 4.0 13.0 0.03 0.05 0.05 69 1017.0
20260905174346 92 321 3.0 13.0 0.00 0.02 0.02 62 1016.3
20260905173841 93 40 2.0 7.0 0.00 0.02 0.02 63 1016.1
20260905173341 93 340 2.0 9.0 0.00 0.02 0.02 63 1016.1
20260905172838 93 26 2.0 9.0 0.00 0.02 0.02 61 1016.1
20260905172338 94 245 3.0 11.0 0.00 0.02 0.02 62 1016.4
20260905171841 94 267 2.0 11.0 0.00 0.02 0.02 60 1016.6
20260905171336 94 285 2.0 10.0 0.00 0.02 0.02 63 1016.6
20260905170836 94 255 3.0 12.0 0.00 0.02 0.02 62 1016.9
20260905170336 94 289 2.0 12.0 0.00 0.02 0.02 62 1016.8
20260905170053 94 174 1.0 4.0 0.00 0.02 0.02 63 1017.2
20260905165337 94 71 2.0 9.0 0.00 0.02 0.02 63 1017.3
20260905164836 93 311 2.0 9.0 0.00 0.02 0.02 62 1017.3
20260905164337 93 200 2.0 8.0 0.00 0.02 0.02 64 1017.3
20260905163837 93 6 2.0 7.0 0.00 0.02 0.02 64 1017.4
20260905163337 93 194 1.0 6.0 0.00 0.02 0.02 64 1017.2
20260905163059 93 54 1.0 6.0 0.00 0.02 0.02 64 1017.3
20260905162337 92 30 2.0 8.0 0.00 0.02 0.02 67 1017.4
20260905162321 92 67 1.0 8.0 0.00 0.02 0.02 65 1017.5
20260905161334 92 331 0.0 5.0 0.00 0.02 0.02 66 1017.5
20260905160834 92 326 1.0 9.0 0.00 0.02 0.02 65 1017.3
20260905160334 92 23 2.0 9.0 0.00 0.02 0.02 69 1017.4
20260905155834 92 47 1.0 8.0 0.00 0.02 0.02 66 1017.5
20260905155334 92 31 1.0 6.0 0.00 0.02 0.02 66 1017.6
20260905154835 92 55 1.0 6.0 0.00 0.02 0.02 67 1017.5
20260905154333 92 13 1.0 5.0 0.00 0.02 0.02 69 1017.5
20260905153835 92 269 0.0 4.0 0.00 0.02 0.02 69 1017.7
20260905153330 92 18 1.0 4.0 0.00 0.02 0.02 68 1017.6
20260905153052 92 230 1.0 5.0 0.00 0.02 0.02 70 1017.8
20260905152330 92 1 1.0 5.0 0.00 0.02 0.02 69 1017.7
20260905151829 91 171 0.0 2.0 0.00 0.02 0.02 70 1017.7
20260905151331 91 145 0.0 2.0 0.00 0.02 0.02 70 1017.7
20260905150832 90 15 1.0 5.0 0.00 0.02 0.02 71 1017.7
20260905150331 90 227 1.0 5.0 0.00 0.02 0.02 74 1017.6
20260905145831 89 276 2.0 6.0 0.00 0.02 0.02 74 1017.6
20260905145332 89 205 2.0 6.0 0.00 0.02 0.02 75 1017.7
20260905144825 88 198 1.0 4.0 0.00 0.02 0.02 77 1017.7
20260905144543 88 266 2.0 5.0 0.00 0.02 0.02 76 1017.9
20260905144048 87 183 2.0 5.0 0.00 0.02 0.02 79 1017.8
20260905143312 87 175 1.0 5.0 0.00 0.02 0.02 78 1018.0
20260905142810 87 222 1.0 4.0 0.00 0.02 0.02 76 1017.9
20260905142309 86 261 1.0 6.0 0.00 0.02 0.02 79 1017.9
20260905141810 86 278 2.0 6.0 0.00 0.02 0.02 80 1017.8
20260905141309 86 195 2.0 6.0 0.00 0.02 0.02 79 1017.8
20260905140811 85 285 1.0 4.0 0.00 0.02 0.02 80 1017.7
20260905140311 85 229 1.0 4.0 0.00 0.02 0.02 81 1017.7
20260905135809 85 263 1.0 3.0 0.00 0.02 0.02 82 1017.6
20260905135308 84 217 1.0 4.0 0.00 0.02 0.02 82 1017.6
20260905134809 83 236 1.0 4.0 0.00 0.02 0.02 84 1017.7
20260905134310 83 178 1.0 3.0 0.00 0.02 0.02 86 1017.7
20260905133807 82 172 1.0 3.0 0.00 0.02 0.02 87 1017.6
20260905133308 82 170 0.0 2.0 0.00 0.02 0.02 88 1017.6
20260905132807 81 200 0.0 1.0 0.00 0.02 0.02 90 1017.6
20260905132308 80 226 0.0 1.0 0.00 0.02 0.02 91 1017.5
20260905132027 79 204 0.0 1.0 0.00 0.02 0.02 91 1017.4
20260905131303 78 227 0.0 2.0 0.00 0.02 0.02 92 1017.5
20260905130804 78 215 0.0 2.0 0.00 0.02 0.02 92 1017.5
20260905130258 77 212 0.0 2.0 0.00 0.02 0.02 94 1017.5
20260905125752 77 221 1.0 4.0 0.00 0.02 0.02 94 1017.5
20260905125246 76 201 1.0 4.0 0.00 0.02 0.02 96 1017.5
20260905124740 75 193 0.0 4.0 0.00 0.02 0.02 98 1017.6
20260905124234 75 246 0.0 2.0 0.00 0.02 0.02 99 1017.5
20260905123957 74 195 0.0 1.0 0.00 0.02 0.02 100 1017.5
20260905123222 74 309 0.0 0.0 0.00 0.02 0.02 99 1017.5
20260905122946 74 309 0.0 0.0 0.00 0.02 0.02 99 1017.5
20260905122443 73 309 0.0 0.0 0.00 0.02 0.02 100 1017.5
20260905121921 73 309 0.0 0.0 0.00 0.02 0.02 100 1017.5
20260905121158 72 309 0.0 1.0 0.00 0.02 0.02 100 1017.6
20260905120652 72 320 0.0 1.0 0.00 0.02 0.02 100 1017.6
20260905120146 71 262 0.0 1.0 0.00 0.02 0.02 100 1017.6
20260905115640 71 326 0.0 0.0 0.00 0.02 0.02 100 1017.5
20260905115134 71 330 0.0 0.0 0.00 0.02 0.02 100 1017.5
20260905114628 71 8 0.0 0.0 0.00 0.02 0.02 100 1017.2
20260905114122 71 8 0.0 0.0 0.00 0.02 0.02 100 1017.3
20260905113616 70 8 0.0 1.0 0.00 0.02 0.02 100 1017.3
20260905113111 70 8 0.0 1.0 0.00 0.02 0.02 100 1017.4
20260905112611 70 48 0.0 0.0 0.00 0.02 0.02 100 1017.2
20260905112112 70 48 0.0 0.0 0.00 0.02 0.02 100 1017.2
20260905110610 70 50 0.0 0.0 0.00 0.02 0.02 100 1017.2
20260905110111 70 50 0.0 0.0 0.00 0.02 0.02 100 1017.0
20260905105609 70 50 0.0 0.0 0.00 0.02 0.02 100 1017.0
20260905105110 70 50 0.0 0.0 0.00 0.02 0.02 100 1017.0